Simultaneous Nadir Overpasses (SNOs) Predictions

Prediction of SNOs between METOP-A and NOAA-19 Satellite Orbit:

Table of predicted SNOs for the next 14.0 days since TLE Epoch: 7/20/2014
Index Date (METOP-A) Time (METOP-A) Lat,Lon (METOP-A) SZA (METOP-A ) Date (NOAA-19) Time (NOAA-19) Lat,Lon (NOAA-19) SZA (NOAA-19 ) Distance(km) Time Diff (sec)
1 07/29/2014 16:39:47 -74.19, 105.15 124.43 07/29/2014 16:38:32 -74.20, 105.13 124.42 0.67 75
2 07/29/2014 17:30:27 74.16, -87.60 55.55 07/29/2014 17:29:29 74.18, -87.57 55.58 2.93 58
3 07/29/2014 18:21:09 -74.17, 79.76 124.43 07/29/2014 18:20:35 -74.17, 79.68 124.43 2.43 34
4 07/29/2014 19:11:49 74.14,-112.99 55.55 07/29/2014 19:11:32 74.16,-113.02 55.57 2.09 17
5 07/29/2014 20:02:32 -74.11, 54.26 124.47 07/29/2014 20:02:37 -74.10, 54.36 124.49 3.54 5
6 07/29/2014 20:53:11 74.12,-138.37 55.55 07/29/2014 20:53:35 74.13,-138.47 55.56 3.01 24
7 07/29/2014 21:43:54 -74.09, 28.87 124.47 07/29/2014 21:44:40 -74.07, 28.92 124.50 2.71 46
8 07/29/2014 22:34:34 74.06,-163.88 55.51 07/29/2014 22:35:37 74.06,-163.79 55.50 2.76 63
9 07/29/2014 23:25:26 -73.58, 2.31 124.92 07/29/2014 23:26:34 -73.61, 4.55 124.98 70.72 68




NCC Satellite Simultaneous Nadir Overpasses (SNOs) Prediction Service
